Retour au catalogue

OPS 4682 DEB

ActifPO
NORAD 55118·DEBRIS·🇺🇸 United States

Lancé Apr 3, 1965 depuis Vandenberg Space Force Base

Loading…

Prochains Passages (prochaines 24 heures)

TLE

VieillissantSource: Space-Track

Époque: Sep 5, 2026, 02:27 UTC

1 55118U 65027HH  26248.10221157  .00000456  00000-0  15110-2 0  9996
2 55118  90.2411   5.5184 0033950 167.8897 316.7858 12.98801371602688

Suivez OPS 4682 DEB en temps réel avec AllMySat

Download on the App Store